SCP
0 0 0 0 0 0 0 0 0 0 0 0 0 0 0 0 0 0 0 0 0 0
0 0 0 0 0 0 0 0 0 0 0 0 0 0 0 0 0 0 0 0 0 0
0 0 0 0 0 0 0 0 0 0 0 0 0 0 0 0 0 0 0 0 0 0
0 0 0 0 0 0 0 0 0 0 0 0 0 0 0 0 0 0 0 0 0 0
0 0 0 0 0 0 0 0 0 0 0 0 0 0 0 0 0 0 0 0 0 0
0 0 0 0 0 0 0 0 0 0 0 0 0 0 0 0 0 0 0 0 0 0
0 0 0 0 0 0 0 0 0 0 0 0 0 0 0 0 0 0 0 0 0 0
0 0 0 0 0 0 0 0 0 0 0 0 0 0 0 0 0 0 0 0 0 0
0 0 0 0 0 0 0 0 0 0 0 0 0 0 0 0 0 0 0 0 0 0
0 0 0 0 0 0 0 0 0 0 0 0 0 0 0 0 0 0 0 0 0 0
0 0 0 0 0 0 0 0 0 0 0 0 0 0 0 0 0 0 0 0 0 0
0 0 0 0 0 0 0 0 0 0 0 0 0 0 0 0 0 0 0 0 0 0
0 0 0 0 0 0 0 0 0 0 0 0 0 0 0 0 0 0 0 0 0 0
0 0 0 0 0 0 0 0 0 0 0 0 0 0 0 0 0 0 0 0 0 0
Wind_Speed_500mb
14 8 2 4 9 12 16 19 22 24 27 28 28 30 31 31 31 31 31 29 28 26
20 13 7 3 7 12 17 20 23 25 27 29 30 31 31 32 32 32 32 31 29 28
25 20 13 8 9 14 20 23 25 27 28 30 31 32 33 34 35 36 34 33 32 31
33 27 20 14 13 14 20 26 28 28 29 31 33 34 35 37 37 38 37 36 35 34
37 32 27 22 19 18 21 28 30 30 30 33 35 37 39 40 40 41 41 40 39 38
40 37 33 28 25 25 25 28 32 31 31 34 36 39 41 43 44 44 44 44 43 42
39 38 36 34 33 31 32 33 32 32 33 35 38 42 43 45 47 48 49 48 47 46
39 38 38 38 39 37 37 37 34 34 35 38 41 43 46 48 51 54 54 53 52 50
43 42 41 42 41 40 40 40 39 38 38 41 44 47 51 54 56 58 60 60 58 56
44 43 43 41 42 42 42 42 43 44 47 49 51 53 56 58 62 63 64 64 63 62
41 42 42 42 43 44 46 47 49 52 55 59 59 59 62 63 68 69 69 68 67 67
37 38 40 43 45 46 50 53 57 58 59 60 61 61 64 67 71 73 74 72 70 69
31 35 39 42 46 50 54 59 60 63 63 65 69 66 68 66 71 76 77 75 72 69
33 36 41 45 49 54 59 64 66 69 70 71 72 71 68 64 68 74 75 74 73 70
Wind_Direction_500mb
206 202 200 24 15 7 1 359 358 358 359 359 359 359 357 357 357 356 354 352 350 347
216 223 237 312 351 351 351 347 345 345 347 349 349 350 350 348 348 348 345 343 341 338
224 229 240 269 314 336 342 342 336 333 335 337 338 339 340 340 340 339 338 336 333 332
228 233 242 257 283 314 330 333 331 325 322 325 328 329 330 331 331 331 331 329 326 326
231 238 246 257 273 294 318 326 324 318 315 317 320 322 322 322 322 323 323 322 319 319
234 243 251 258 269 286 302 313 316 311 309 311 313 314 314 314 314 314 315 315 313 313
241 247 254 258 266 276 289 303 305 303 304 306 307 308 309 309 308 307 308 308 308 307
246 253 256 256 261 271 283 294 293 294 299 301 302 304 303 304 304 302 302 302 303 303
250 255 258 255 258 268 279 286 287 291 295 297 301 302 300 299 299 298 297 298 299 299
252 254 254 251 257 267 277 280 282 286 290 295 298 299 298 296 293 294 294 295 295 296
243 244 246 251 259 268 272 274 278 282 288 292 295 297 296 292 288 288 290 291 292 293
237 242 249 255 261 267 272 277 281 284 287 290 294 296 294 290 286 284 287 288 289 291
246 252 257 262 267 272 277 280 283 286 290 292 294 297 294 289 284 282 284 286 287 288
268 272 276 278 281 283 284 285 288 290 290 290 291 291 289 285 281 280 282 283 285 288
Wind_Speed_850mb
14 8 2 4 9 12 16 19 22 24 27 28 28 30 31 31 31 31 31 29 28 26
20 13 7 3 7 12 17 20 23 25 27 29 30 31 31 32 32 32 32 31 29 28
25 20 13 8 9 14 20 23 25 27 28 30 31 32 33 34 35 36 34 33 32 31
33 27 20 14 13 14 20 26 28 28 29 31 33 34 35 37 37 38 37 36 35 34
37 32 27 22 19 18 21 28 30 30 30 33 35 37 39 40 40 41 41 40 39 38
40 37 33 28 25 25 25 28 32 31 31 34 36 39 41 43 44 44 44 44 43 42
39 38 36 34 33 31 32 33 32 32 33 35 38 42 43 45 47 48 49 48 47 46
39 38 38 38 39 37 37 37 34 34 35 38 41 43 46 48 51 54 54 53 52 50
43 42 41 42 41 40 40 40 39 38 38 41 44 47 51 54 56 58 60 60 58 56
44 43 43 41 42 42 42 42 43 44 47 49 51 53 56 58 62 63 64 64 63 62
41 42 42 42 43 44 46 47 49 52 55 59 59 59 62 63 68 69 69 68 67 67
37 38 40 43 45 46 50 53 57 58 59 60 61 61 64 67 71 73 74 72 70 69
31 35 39 42 46 50 54 59 60 63 63 65 69 66 68 66 71 76 77 75 72 69
33 36 41 45 49 54 59 64 66 69 70 71 72 71 68 64 68 74 75 74 73 70
Wind_Direction_850mb
206 202 200 24 15 7 1 359 358 358 359 359 359 359 357 357 357 356 354 352 350 347
216 223 237 312 351 351 351 347 345 345 347 349 349 350 350 348 348 348 345 343 341 338
224 229 240 269 314 336 342 342 336 333 335 337 338 339 340 340 340 339 338 336 333 332
228 233 242 257 283 314 330 333 331 325 322 325 328 329 330 331 331 331 331 329 326 326
231 238 246 257 273 294 318 326 324 318 315 317 320 322 322 322 322 323 323 322 319 319
234 243 251 258 269 286 302 313 316 311 309 311 313 314 314 314 314 314 315 315 313 313
241 247 254 258 266 276 289 303 305 303 304 306 307 308 309 309 308 307 308 308 308 307
246 253 256 256 261 271 283 294 293 294 299 301 302 304 303 304 304 302 302 302 303 303
250 255 258 255 258 268 279 286 287 291 295 297 301 302 300 299 299 298 297 298 299 299
252 254 254 251 257 267 277 280 282 286 290 295 298 299 298 296 293 294 294 295 295 296
243 244 246 251 259 268 272 274 278 282 288 292 295 297 296 292 288 288 290 291 292 293
237 242 249 255 261 267 272 277 281 284 287 290 294 296 294 290 286 284 287 288 289 291
246 252 257 262 267 272 277 280 283 286 290 292 294 297 294 289 284 282 284 286 287 288
268 272 276 278 281 283 284 285 288 290 290 290 291 291 289 285 281 280 282 283 285 288